Flag for U.S.A. Weather past 2 weeks in Vincennes, Indiana, U.S.A.

Now
35 °F

Overcast.


Feels Like: 26 °F
Forecast: 27 / 36 °F
Wind: 15 mph from Northwest

Location: Lawrenceville-Vincennes International Airport

Current Time: Jan 30, 2015 at 3:07:50 AM

Latest Report: Jan 30, 2015 at 1:53 AM


Visibility: 10 mi

Pressure: 30.37 "Hg

Humidity: 70%

Dew point: 26 °F

Location of VincennesLocation

Historic Weather in Vincennes — Graph

°F

Vincennes temperature yesterday

Maximum temperature yesterday: 47 °F (at 8:53 AM)
Minimum temperature yesterday: 35 °F (at 11:53 PM)
Average temperature yesterday: 40 °F

Past Weeks' High & Low Weather Summary

 TemperatureHumidityPressure
High53 °F (Jan 17, 2:53 PM)100% (Jan 25, 5:53 PM)30.48 "Hg (Jan 25, 5:53 PM)
Low21 °F (Jan 15, 6:53 AM)50% (Jan 15, 1:53 PM)29.61 "Hg (Jan 25, 1:53 PM)
Average35 °F80%30.06 "Hg
* Reported Jan 15 1:53 AM — Jan 30 1:53 AM, Vincennes, Weather by CustomWeather, © 2014

Note: Actual official high and low records may vary slightly from our data, if they occured in-between our weather recording intervals... More about our weather records

Advertising

Vincennes weather history for previous 24 hours

 ConditionsComfort  
Time TempWeatherWind HumidityBarometerVisibility
1:53 AM
Jan 30
35 °FOvercast.15 mph70%30.37 "Hg10 mi
12:53 AM35 °FOvercast.14 mph72%30.36 "Hg10 mi
11:53 PM
Jan 29
35 °FOvercast.16 mph78%30.35 "Hg10 mi
10:53 PM36 °FOvercast.15 mph82%30.33 "Hg10 mi
9:53 PM36 °FMostly cloudy.15 mph85%30.32 "Hg9 mi
8:53 PM37 °FMostly cloudy.17 mph86%30.29 "Hg9 mi
8:00 PM37 °FFog.15 mph89%30.27 "Hg6 mi
6:53 PM37 °FFog.13 mph86%30.24 "Hg6 mi
5:53 PM37 °FMostly cloudy.16 mph82%30.20 "Hg4 mi
4:53 PM37 °FMostly cloudy.17 mph82%30.17 "Hg5 mi
3:53 PM38 °FOvercast.22 mph76%30.13 "Hg5 mi
2:53 PM39 °FMostly cloudy.14 mph76%30.09 "Hg6 mi
1:53 PM39 °FOvercast.14 mph79%30.07 "Hg5 mi
12:53 PM39 °FOvercast.22 mph79%30.06 "Hg6 mi
11:53 AM40 °FOvercast.20 mph80%30.03 "Hg5 mi
10:53 AM41 °FOvercast.17 mph80%29.99 "Hg5 mi
9:53 AM44 °FMostly cloudy.23 mph76%29.94 "Hg6 mi
8:53 AM47 °FScattered clouds.16 mph74%29.87 "Hg10 mi
7:53 AM42 °FClear.12 mph79%29.84 "Hg10 mi
6:53 AM43 °FClear.10 mph76%29.81 "Hg10 mi
5:53 AM42 °FPassing clouds.15 mph76%29.81 "Hg10 mi
4:53 AM42 °FClear.16 mph73%29.83 "Hg10 mi
3:53 AM41 °FPassing clouds.15 mph74%29.85 "Hg10 mi
Weather by CustomWeather, © 2014

See weather overviewHow to use our weather pages